Regional Weather Roundup
Issued by NWS

Home | Current Version | Previous Version | Graphics & Text | Print | Product List | Glossary On
Versions: 1 2 3 4 5 6 7 8 9 10 11 12 13 14 15 16 17 18 19 20 21 22 23 24 25 26 27 28 29 30 31 32 33 34 35 36 37 38 39 40 41 42 43 44 45 46 47 48 49 50
000
ASUS45 KBOU 280607
RWRCO

WEATHER ROUNDUP FOR COLORADO
NATIONAL WEATHER SERVICE DENVER/BOULDER CO
1200 AM MDT MON JUL 28 2014

NOTE: "FAIR" INDICATES FEW OR NO CLOUDS BELOW 12000 FEET WITH NO
SIGNIFICANT WEATHER AND/OR OBSTRUCTIONS TO VISIBILITY.

COZ001>005-013-030-031-280700-
...NORTHWEST COLORADO...

CITY           SKY/WX    TMP DP  RH WIND       PRES   REMARKS
CRAIG          PTCLDY    49  49 100 E3        30.33R
HAYDEN         PTCLDY    66  41  39 E8        30.35S
MEEKER         MOCLDY    68  46  45 NE5       30.33R
MOUNT WERNER   NOT AVBL
STEAMBOAT SPGS MOCLDY    63  45  51 W3        30.38R
WALDEN         CLEAR     55  45  67 E5        30.50S
$$

COZ006>008-011-280700-
...WEST CENTRAL VALLEYS...

CITY           SKY/WX    TMP DP  RH WIND       PRES   REMARKS
GRAND JUNCTION MOCLDY    76  49  38 E13       30.21R
MONTROSE       MOCLDY    70  51  51 SE7       30.33R
EAGLE          PTCLDY    64  48  55 CALM      30.39S
RIFLE          MOCLDY    72  46  39 SE8       30.28R
DELTA          MOCLDY    74  54  50 W3        30.29R
NUCLA          MOCLDY    72  50  46 CALM      30.40R
$$

COZ017>023-064>068-280700-
...SOUTHWEST COLORADO...

CITY           SKY/WX    TMP DP  RH WIND       PRES   REMARKS
DURANGO        CLOUDY    62  57  83 E3        30.45F
CORTEZ         MOCLDY    67  58  72 S6        30.38F
PAGOSA SPRINGS CLOUDY    59  54  83 CALM      30.55R THUNDER
TELLURIDE      PTCLDY    61  46  59 CALM      30.58R
WOLF CREEK PAS NOT AVBL
$$

COZ009-010-012-014-032>034-037-058>063-280700-
...CENTRAL COLORADO...

CITY           SKY/WX    TMP DP  RH WIND       PRES   REMARKS
ASPEN          MOCLDY    64  44  48 S7        30.45S
BUENA VISTA    CLOUDY    56  53  89 CALM      30.57R
COPPER MTN     PTCLDY    55  36  47 S15       30.79F
BERTHOUD PASS  FAIR      41  28  60 SE20      30.85S
COTTONWOOD PAS CLOUDY    55  50  82 SE3       30.68R
GUNNISON       MOCLDY    61  46  59 N8        30.52R
KREMMLING      PTCLDY    61  43  51 CALM      30.46S
LEADVILLE      MOCLDY    49  46  90 E3        30.66S
MONARCH PASS   CLOUDY    46  41  81 E5        30.92R
SALIDA         CLOUDY   N/A N/A N/A W5        30.61S
SUNLIGHT       MOCLDY    59  41  51 CALM      30.71S
WILKERSON PASS NOT AVBL
$$

COZ069>075-280700-
...SAN LUIS VALLEY/SANGRE DE CRISTO MOUNTAINS...

CITY           SKY/WX    TMP DP  RH WIND       PRES   REMARKS
ALAMOSA        CLOUDY    61  55  81 CALM      30.50R
LA VETA PASS   TSTM      50  46  87 E10       30.71S
SAGUACHE       PTCLDY    59  50  72 CALM      30.54R
$$

COZ035-036-038>040-280700-
...NORTHERN COLORADO FRONT RANGE...

CITY           SKY/WX    TMP DP  RH WIND       PRES   REMARKS
DENVER INTL AP MOCLDY    67  57  70 S14       30.36S
DMNS CITY PARK   N/A     68  56  64 SE5G10    30.35S
AURORA         MOCLDY    68  57  68 S13       30.39R
FRONT RANGE AP NOT AVBL
ERIE MUNI ARPT MOCLDY    68  54  59 S6        30.35S
BOULDER MUN AP MOCLDY    70  52  52 SE3       30.35S
CENTENNIAL     MOCLDY    67  56  67 S12       30.39F
BROOMFIELD     MOCLDY    66  52  59 SW8       30.38S
FORT COLLINS   PTCLDY    66  59  77 S9        30.35S
LONGMONT       PTCLDY    68  60  75 CALM      30.36S
$$

COZ041-046-047-076>085-087-088-280700-
...PIKES PEAK/PALMER DIVIDE AND SOUTHERN FOOTHILLS...

CITY           SKY/WX    TMP DP  RH WIND       PRES   REMARKS
COLO. SPRINGS  LGT RAIN  61  60  97 S6        30.49S
A. F. ACADEMY  CLOUDY    59  59 100 S7        30.50S
ELLICOTT       RAIN      60  58  92 S21       30.47F FOG
FALCON         LGT RAIN  58  57  96 SW6       30.53S
FORT CARSON    CLOUDY    61  59  94 N5        30.47R
LIMON          CLOUDY    66  61  84 SE7       30.41R
MONUMENT HILL  CLOUDY    57  54  88 S13       30.49S
TRINIDAD       CLOUDY    65  59  81 CALM      30.44S
$$

COZ042>045-048>051-090-091-280700-
...NORTHEAST COLORADO...

CITY           SKY/WX    TMP DP  RH WIND       PRES   REMARKS
GREELEY ARPT   MOCLDY    66  57  72 S9        30.34S
AKRON          MOCLDY    68  46  45 SE10      30.35F
BURLINGTON     CLOUDY    66  51  58 SE5       30.35R
WRAY             N/A     69  47  45 CALM      30.32R
STERLING       MOCLDY    75  52  43 S10       30.31F
HOLYOKE        PTCLDY    63  55  77 E7        30.32S
FORT MORGAN    MOCLDY    68  48  49 E5        30.35S
$$

COZ086-089-092>099-280700-
...SOUTHEAST COLORADO...

CITY           SKY/WX    TMP DP  RH WIND       PRES   REMARKS
PUEBLO         LGT RAIN  65  64  97 E5        30.40R
LA JUNTA       RAIN      67  63  87 W8        30.37R FOG
LAMAR          CLOUDY    73  63  70 S6        30.31R
SPRINGFIELD      N/A     69  59  70 S8        30.37R
$$



USA.gov is the U.S. government's official web portal to all federal, state and local government web resources and services.